Home   Weather   Quito   Past weeks
Flag for Ecuador

Past Weather in Quito, Ecuador — Yesterday and Last 2 Weeks

Now
50 °F

Passing clouds.


Feels Like: 49 °F
Forecast: 63 / 54 °F
Wind: 3 mph from Northwest

Location: Latacunga Airport

Current Time: Apr 19, 2019 at 7:46:35 pm

Latest Report: Apr 19, 2019 at 7:00 pm


Visibility: N/A

Pressure: 30.36 "Hg (21.59 "Hg at 2826m altitude)

Humidity: 94%

Dew Point: 48 °F

Location of QuitoLocation

Past Weather in Quito — Graph

°F

Quito Temperature Yesterday

Maximum temperature yesterday: 66 °F (at 2:00 pm)
Minimum temperature yesterday: 45 °F (at 12:00 am)
Average temperature yesterday: 55 °F

High & Low Weather Summary for the Past Weeks

 TemperatureHumidityPressure
High70 °F (Apr 5, 1:00 pm)100% (Apr 6, 3:00 am)30.51 "Hg (Apr 6, 3:00 am)
Low36 °F (Apr 16, 5:00 am)43% (Apr 5, 12:00 pm)30.24 "Hg (Apr 11, 4:00 pm)
Average53 °F80%30.40 "Hg
* Reported Apr 4 8:00 pm — Apr 19 6:00 pm, Quito. Weather by CustomWeather, © 2019

Note: Actual official high and low records may vary slightly from our data, if they occured in-between our weather recording intervals... More about our weather records

Advertising

Quito Weather History for the Previous 24 Hours

Scroll right to see more
 ConditionsComfort  
Time TempWeatherWind HumidityBarometerVisibility
6:00 pm
Fri, Apr 19
52 °FPartly sunny.2 mph88%30.36 "HgN/A
5:00 pm54 °FBroken clouds.3 mph82%30.33 "HgN/A
4:00 pm52 °FLight rain. Overcast.12 mph88%30.36 "HgN/A
3:40 pm50 °FLight rain. Overcast.17 mph100%30.33 "HgN/A
3:05 pm50 °FThunderstorms. Partly sunny.9 mph100%30.36 "Hg1 mi
2:35 pm54 °FCool.N/A94%30.33 "HgN/A
2:00 pm59 °FScattered showers. Partly sunny.13 mph68%30.36 "HgN/A
1:00 pm59 °FScattered showers. Partly sunny.6 mph72%30.36 "HgN/A
12:00 pm59 °FPartly sunny.3 mph68%30.39 "HgN/A
11:00 am59 °FBroken clouds.3 mph68%30.42 "HgN/A
10:00 am57 °FBroken clouds.5 mph72%30.45 "HgN/A
9:00 am55 °FBroken clouds.3 mph82%30.45 "HgN/A
8:00 am54 °FPartly sunny.3 mph88%30.42 "HgN/A
7:00 am52 °FPartly sunny.3 mph94%30.39 "HgN/A
6:00 am52 °FPassing clouds.1 mph88%30.39 "HgN/A
5:00 am52 °FPassing clouds.1 mph88%30.36 "HgN/A
4:00 am52 °FPassing clouds.1 mph88%30.36 "HgN/A
3:00 am50 °FPassing clouds.3 mph94%30.36 "HgN/A
2:00 am50 °FPassing clouds.5 mph94%30.39 "HgN/A
1:00 am50 °FPassing clouds.3 mph94%30.39 "HgN/A
12:00 am50 °FPassing clouds.5 mph94%30.42 "HgN/A
11:00 pm
Thu, Apr 18
52 °FPassing clouds.6 mph88%30.42 "HgN/A
10:00 pm52 °FPartly cloudy.6 mph88%30.39 "HgN/A
9:00 pm54 °FPartly cloudy.9 mph82%30.36 "HgN/A
8:00 pm54 °FPartly cloudy.10 mph82%30.33 "HgN/A
7:00 pm57 °FPartly cloudy.14 mph72%30.30 "HgN/A
Weather by CustomWeather, © 2019

See weather overview